THOR ABLESTAR DEB, 127

Orbit data source: Space-Track

THOR ABLESTAR DEB, 127 is space debris in LEO originally from a launch on Thu, 29 Jun 1961 UTC launched from the Air Force Eastern Test Range (AFETR). Debris objects in space refer to the collection of defunct objects orbiting the Earth. Examples of debris include non-operational satellites, rocket bodies, and fragments generated from explosions, collisions, or faulty payload assembly.

Loading next visibility...
Identifier
127, 1961-015M
Orbit
LEO
Country
Flag of USUS
Related business
Manufacturer
Unknown
Mission
Spacecraft
Bus & Motor
Unknown
Mass
Unknown
Launch date (UTC)
1961-06-29 (64 years ago)
Launch vehicle
Unknown
Launch site
Air Force Eastern Test Range (AFETR)
Object type
Payload
Rocket body
Debris
Shape & HBR
Unknown
Radar Cross Section
0.360 m², Medium (>0.1 m² and < 1m²)

Expand to show TLE details & history
Last TLE update: 11 hours ago

TLE from 11 hours ago
0 THOR ABLESTAR DEB
1 00127U 61015M   25243.27644999  .00004145  00000-0  11238-2 0  9990
2 00127  66.8318   2.0339 0071372 234.1972 125.2490 14.47105605324880
Epoch: 2025-08-31T06:38Z
TLE epoch observation values (Epoch: 2025-08-31T06:38:05.279Z)
Latitude
0.00003°
Longitude
-77.1868°
Altitude
766.795 km
Speed
7.456 km/s
True Right ascension
00h 08m 08s
True Declination
0° 00' 00"
Sunlit
Object was in full shadow at epoch
Visualization orbit readout
Latitude
Unknown
Longitude
Unknown
Altitude
Unknown
Speed
Unknown
Apparent Right ascension
Unknown
Apparent Declination
Unknown
Sunlit
N/A
Visualization observer readout
Local Sidereal Time
09:25:39
Azimuth
Unknown
Elevation
Unknown
Doppler factor
Unknown
Orbital elements
Apogee altitude
784.221 km
Perigee altitude
682.707 km
Semi-major axis
7,111.601 km
Eccentricity
0.00714
Inclination
66.8318°
RAAN
2.0339°
Arg. of periapsis
234.1972°
True anomaly
125.91347°
Mean anomaly
125.249°
Eccentric anomaly
125.58158°
Mean motion
3.61903 °/min
Orbital period
99.47 mins
BSTAR
0.0011238
Loading maneuver chart data...
Computing Atmospheric mass density...

Documentation

Showing up to 5 results
|